Regional Weather Roundup
Issued by NWS Sioux Falls, SD

Home | Current Version | Previous Version | Text Only | Print | Product List | Glossary On
Versions: 1 2 3 4 5 6 7 8 9 10 11 12 13 14 15 16 17 18 19 20 21 22 23 24 25 26 27 28 29 30 31 32 33 34 35 36 37 38 39 40 41 42 43 44 45 46 47 48 49 50
000
ASUS43 KFSD 201402
RWRFSD

WEATHER ROUNDUP FOR SE SOUTH DAKOTA/SW MINNESOTA/NW IOWA
NATIONAL WEATHER SERVICE SIOUX FALLS SD
900 AM CDT FRI APR 20 2018

NOTE: "FAIR" INDICATES FEW OR NO CLOUDS BELOW 12,000 FEET WITH NO
SIGNIFICANT WEATHER AND OR OBSTRUCTIONS TO VISIBILITY.


SDZ038>040-050-052>070-201500-
SOUTHEAST SOUTH DAKOTA

CITY           SKY/WX    TMP DP  RH WIND       PRES   REMARKS
BROOKINGS      CLOUDY    35  25  66 SE9       30.43R WCI  28
CHAMBERLAIN    CLOUDY    36  34  92 SE10      30.34R
HURON          CLOUDY    34  26  72 SE9       30.40R WCI  27
MADISON        FAIR      32  32 100 SE12      30.41S WCI  23
MITCHELL       CLOUDY    35  28  75 SE13      30.40S WCI  26
SIOUX FALLS    CLOUDY    36  24  62 SE9       30.43R
WINNER         FAIR      40  29  64 SE17      30.29R
YANKTON        CLOUDY    34  29  82 E7        30.41R WCI  28
$$

MNZ071-072-080-081-089-090-097-098-201500-
SOUTHWEST MINNESOTA

CITY           SKY/WX    TMP DP  RH WIND       PRES   REMARKS
FAIRMONT       CLOUDY    26  18  71 SE3       30.50R
JACKSON        CLOUDY    32  21  64 SE8       30.47R WCI  25
LUVERNE        CLOUDY    34  27  75 SE5       30.45S WCI  30
MARSHALL       MOSUNNY   33  21  61 SE6       30.47R WCI  28
MONTEVIDEO     MOSUNNY   37  25  60 S5        30.47R
PIPESTONE      MOSUNNY  N/A N/A N/A S7        30.44R
REDWOOD FALLS  MOSUNNY   31  24  75 E7        30.48R WCI  24
TRACY          CLOUDY    35  24  64 S9        30.45R WCI  27
WINDOM         CLOUDY    36  16  44 SE7       30.47R
WORTHINGTON      N/A     35  23  61 S10       30.45R WCI  27
$$

IAZ001>003-012>014-020>022-031-032-NEZ013-014-SDZ071-201500-
NORTHWEST IOWA

CITY           SKY/WX    TMP DP  RH WIND       PRES   REMARKS
CHEROKEE       CLOUDY    36  28  72 CALM      30.46S
DENISON        MOSUNNY   39  30  70 E8        30.46F
ESTHERVILLE    CLOUDY    23  20  88 SE5       30.48R WCI  17
LE MARS        CLOUDY    39  28  65 SE9G15    30.44F
ORANGE CITY    MOSUNNY   37  28  70 SE5       30.44S
SHELDON        MOSUNNY   37  28  70 SE8       30.43S
SIOUX CITY     CLOUDY    37  29  72 SE10      30.43F
SPENCER        CLOUDY    31  24  75 E3        30.47R
STORM LAKE     CLOUDY    34  27  75 SE12      30.45S WCI  25
$$

ABBREVIATIONS USED IN REMARKS
   TC - TEMPERATURE IN CELSIUS
  WCI - WIND CHILL INDEX
   HX - HEAT INDEX
  VSB - VISIBILITY





USA.gov is the U.S. government's official web portal to all federal, state and local government web resources and services.